,,,PA_Meas_PMT16A,,PR_Meas_QMR101_102,,RH_Meas_QMH101,,SR_Meas_QMS101,,TA_Meas_QMH101,,GenWind,,GenWind,
date,time,status,PA,status,PR,status,RH,status,SR,status,TA,status,DirAvg,status,SpdAvg,
2010-04-21, 00:00:04,VALID,1009.66,VALID,0,VALID,100.721,VALID,0,VALID,25.6607,VALID,125,VALID,0,
2010-04-21, 00:01:04,VALID,1009.65,VALID,0,VALID,100.69,VALID,0,VALID,25.6821,VALID,88,VALID,0,
2010-04-21, 00:02:04,VALID,1009.66,VALID,0,VALID,100.629,VALID,0,VALID,25.6607,VALID,88,VALID,0,
2010-04-21, 00:03:04,VALID,1009.67,VALID,0,VALID,100.599,VALID,0,VALID,25.6607,VALID,88,VALID,0,
2010-04-21, 00:04:04,VALID,1009.66,VALID,0,VALID,100.553,VALID,0,VALID,25.6607,VALID,80,VALID,0,
2010-04-21, 00:05:04,VALID,1009.65,VALID,0,VALID,100.53,VALID,0,VALID,25.6626,VALID,74,VALID,0,
2010-04-21, 00:06:04,VALID,1009.67,VALID,0,VALID,100.553,VALID,0,VALID,25.6607,VALID,36,VALID,0,
2010-04-21, 00:07:04,VALID,1009.66,VALID,0,VALID,100.591,VALID,0,VALID,25.6412,VALID,37,VALID,0.480078,
2010-04-21, 00:08:04,VALID,1009.65,VALID,0,VALID,100.637,VALID,0,VALID,25.6022,VALID,33,VALID,0.455469,
2010-04-21, 00:09:04,VALID,1009.65,VALID,0,VALID,100.683,VALID,0,VALID,25.6022,VALID,44,VALID,0.613281,
2010-04-21, 00:10:04,VALID,1009.6,VALID,0,VALID,100.713,VALID,0,VALID,25.5827,VALID,47,VALID,0.570313,
2010-04-21, 00:11:04,VALID,1009.58,VALID,0,VALID,100.751,VALID,0,VALID,25.5632,VALID,40,VALID,0.0179687,
2010-04-21, 00:12:04,VALID,1009.54,VALID,0,VALID,100.736,VALID,0,VALID,25.5456,VALID,51,VALID,0.322266,
2010-04-21, 00:13:04,VALID,1009.53,VALID,0,VALID,100.767,VALID,0,VALID,25.5437,VALID,48,VALID,0.331641,
2010-04-21, 00:14:04,VALID,1009.51,VALID,0,VALID,100.805,VALID,0,VALID,25.5242,VALID,93,VALID,0.403906,
2010-04-21, 00:15:04,VALID,1009.48,VALID,0,VALID,100.843,VALID,0,VALID,25.4852,VALID,92,VALID,0.26875,
2010-04-21, 00:16:04,VALID,1009.45,VALID,0,VALID,100.843,VALID,0,VALID,25.5066,VALID,92,VALID,0,
2010-04-21, 00:17:04,VALID,1009.42,VALID,0,VALID,100.866,VALID,0,VALID,25.4871,VALID,61,VALID,0.350781,
2010-04-21, 00:18:04,VALID,1009.39,VALID,0,VALID,100.904,VALID,0,VALID,25.4677,VALID,83,VALID,0.585156,
2010-04-21, 00:19:04,VALID,1009.41,VALID,0,VALID,100.95,VALID,0,VALID,25.4267,VALID,83,VALID,0.253516,
2010-04-21, 00:20:04,VALID,1009.39,VALID,0,VALID,100.995,VALID,0,VALID,25.4267,VALID,83,VALID,0.0890625,
2010-04-21, 00:21:04,VALID,1009.33,VALID,0,VALID,101.011,VALID,0,VALID,25.4267,VALID,83,VALID,0.0726563,
2010-04-21, 00:22:04,VALID,1009.31,VALID,0,VALID,101.034,VALID,0,VALID,25.4287,VALID,83,VALID,0,
2010-04-21, 00:23:04,VALID,1009.3,VALID,0,VALID,101.056,VALID,0,VALID,25.4072,VALID,83,VALID,0,
2010-04-21, 00:24:04,VALID,1009.32,VALID,0,VALID,101.11,VALID,0,VALID,25.4287,VALID,122,VALID,0.429688,
2010-04-21, 00:25:04,VALID,1009.32,VALID,0,VALID,101.133,VALID,0,VALID,25.4287,VALID,125,VALID,0.437109,
2010-04-21, 00:26:04,VALID,1009.3,VALID,0,VALID,101.14,VALID,0,VALID,25.4072,VALID,164,VALID,0.597656,
2010-04-21, 00:27:04,VALID,1009.31,VALID,0,VALID,101.148,VALID,0.105969,VALID,25.4267,VALID,187,VALID,0.674609,
2010-04-21, 00:28:04,VALID,1009.34,VALID,0,VALID,101.171,VALID,0,VALID,25.4482,VALID,188,VALID,0.610156,
2010-04-21, 00:29:04,VALID,1009.31,VALID,0,VALID,101.209,VALID,0.105969,VALID,25.4462,VALID,202,VALID,0.178906,
2010-04-21, 00:30:04,VALID,1009.27,VALID,0,VALID,101.194,VALID,0,VALID,25.4267,VALID,197,VALID,0.303516,
2010-04-21, 00:31:04,VALID,1009.28,VALID,0,VALID,101.232,VALID,0.105969,VALID,25.4287,VALID,179,VALID,0,
2010-04-21, 00:32:04,VALID,1009.24,VALID,0,VALID,101.224,VALID,0,VALID,25.4287,VALID,179,VALID,0,
2010-04-21, 00:33:04,VALID,1009.22,VALID,0,VALID,101.232,VALID,0,VALID,25.4287,VALID,179,VALID,0,
2010-04-21, 00:34:04,VALID,1009.18,VALID,0,VALID,101.255,VALID,0,VALID,25.4072,VALID,179,VALID,0,
2010-04-21, 00:35:04,VALID,1009.17,VALID,0,VALID,101.285,VALID,0,VALID,25.4287,VALID,179,VALID,0,
2010-04-21, 00:36:04,VALID,1009.13,VALID,0,VALID,101.285,VALID,0,VALID,25.4287,VALID,179,VALID,0.119141,
2010-04-21, 00:37:04,VALID,1009.12,VALID,0,VALID,101.323,VALID,0,VALID,25.3877,VALID,179,VALID,0,
2010-04-21, 00:38:04,VALID,1009.11,VALID,0,VALID,101.339,VALID,0,VALID,25.3877,VALID,179,VALID,0,
2010-04-21, 00:39:04,VALID,1009.09,VALID,0,VALID,101.339,VALID,0,VALID,25.4092,VALID,179,VALID,0,
2010-04-21, 00:40:04,VALID,1009.07,VALID,0,VALID,101.4,VALID,0,VALID,25.4072,VALID,179,VALID,0,
2010-04-21, 00:41:04,VALID,1009.09,VALID,0,VALID,101.43,VALID,0,VALID,25.4287,VALID,179,VALID,0,
2010-04-21, 00:42:04,VALID,1009.08,VALID,0,VALID,101.445,VALID,0,VALID,25.3683,VALID,179,VALID,0,
2010-04-21, 00:43:04,VALID,1009.08,VALID,0,VALID,101.423,VALID,0,VALID,25.3702,VALID,179,VALID,0,
2010-04-21, 00:44:04,VALID,1009.06,VALID,0,VALID,101.43,VALID,0,VALID,25.3488,VALID,177,VALID,0,
2010-04-21, 00:45:04,VALID,1009.08,VALID,0,VALID,101.476,VALID,0,VALID,25.3488,VALID,173,VALID,0,
2010-04-21, 00:46:04,VALID,1009.09,VALID,0,VALID,101.453,VALID,0,VALID,25.3293,VALID,128,VALID,0.796875,
2010-04-21, 00:47:04,VALID,1009.07,VALID,0,VALID,101.468,VALID,0.105969,VALID,25.3293,VALID,131,VALID,0.758203,
2010-04-21, 00:48:04,VALID,1009.08,VALID,0,VALID,101.476,VALID,0,VALID,25.3293,VALID,140,VALID,0.691797,
2010-04-21, 00:49:04,VALID,1009.09,VALID,0,VALID,101.506,VALID,0,VALID,25.3507,VALID,140,VALID,0.632031,
2010-04-21, 00:50:04,VALID,1009.09,VALID,0,VALID,101.514,VALID,0,VALID,25.3702,VALID,140,VALID,0.516797,
2010-04-21, 00:51:04,VALID,1009.09,VALID,0,VALID,101.506,VALID,0,VALID,25.3683,VALID,140,VALID,0.521094,
2010-04-21, 00:52:04,VALID,1009.07,VALID,0,VALID,101.514,VALID,0,VALID,25.3877,VALID,127,VALID,0.720312,
2010-04-21, 00:53:04,VALID,1009.08,VALID,0,VALID,101.506,VALID,0,VALID,25.4287,VALID,128,VALID,0.801562,
2010-04-21, 00:54:04,VALID,1009.07,VALID,0,VALID,101.499,VALID,0.105969,VALID,25.4072,VALID,144,VALID,1.00937,
2010-04-21, 00:55:04,VALID,1009.06,VALID,0,VALID,101.476,VALID,0,VALID,25.4072,VALID,138,VALID,0.8375,
2010-04-21, 00:56:04,VALID,1009.06,VALID,0,VALID,101.453,VALID,0,VALID,25.4677,VALID,109,VALID,0.351953,
2010-04-21, 00:57:04,VALID,1009.06,VALID,0,VALID,101.407,VALID,0,VALID,25.4657,VALID,87,VALID,0.172656,
2010-04-21, 00:58:04,VALID,1009.05,VALID,0,VALID,101.346,VALID,0,VALID,25.4871,VALID,87,VALID,0.366406,
2010-04-21, 00:59:04,VALID,1009.06,VALID,0,VALID,101.262,VALID,0.105969,VALID,25.4852,VALID,81,VALID,0.741016,
2010-04-21, 01:00:04,VALID,1009.04,VALID,0,VALID,101.209,VALID,0,VALID,25.4852,VALID,121,VALID,0.971875,
2010-04-21, 01:01:04,VALID,1009.05,VALID,0,VALID,101.133,VALID,0,VALID,25.5261,VALID,100,VALID,0.829297,
2010-04-21, 01:02:04,VALID,1009.05,VALID,0,VALID,101.049,VALID,0,VALID,25.5261,VALID,91,VALID,0.89375,
2010-04-21, 01:03:04,VALID,1009.03,VALID,0,VALID,100.995,VALID,0,VALID,25.5047,VALID,92,VALID,0.827734,
2010-04-21, 01:04:04,VALID,1009.07,VALID,0,VALID,100.965,VALID,0,VALID,25.4852,VALID,103,VALID,0.710156,
2010-04-21, 01:05:04,VALID,1009.06,VALID,0,VALID,100.98,VALID,0,VALID,25.5047,VALID,102,VALID,0.957031,
2010-04-21, 01:06:04,VALID,1009.04,VALID,0,VALID,100.973,VALID,0,VALID,25.5066,VALID,103,VALID,1.25781,
2010-04-21, 01:07:04,VALID,1009.06,VALID,0,VALID,100.973,VALID,0,VALID,25.5261,VALID,108,VALID,1.18555,
2010-04-21, 01:08:04,VALID,1009.04,VALID,0,VALID,100.95,VALID,0,VALID,25.5047,VALID,102,VALID,1.06055,
2010-04-21, 01:09:04,VALID,1009.02,VALID,0,VALID,100.927,VALID,0.105969,VALID,25.5047,VALID,93,VALID,0.816016,
2010-04-21, 01:10:04,VALID,1009.04,VALID,0,VALID,100.973,VALID,0,VALID,25.5261,VALID,101,VALID,0.904688,
2010-04-21, 01:11:04,VALID,1009.04,VALID,0,VALID,100.98,VALID,0.105969,VALID,25.5261,VALID,98,VALID,0.792969,
2010-04-21, 01:12:04,VALID,1009.05,VALID,0,VALID,100.965,VALID,0,VALID,25.4852,VALID,118,VALID,0.695313,
2010-04-21, 01:13:04,VALID,1009.03,VALID,0,VALID,101.003,VALID,0.105969,VALID,25.4852,VALID,107,VALID,1.14688,
2010-04-21, 01:14:04,VALID,1009.02,VALID,0,VALID,100.995,VALID,0,VALID,25.5066,VALID,105,VALID,1.20469,
2010-04-21, 01:15:04,VALID,1009.02,VALID,0,VALID,101.003,VALID,0.105969,VALID,25.5066,VALID,116,VALID,1.03555,
2010-04-21, 01:16:04,VALID,1009.01,VALID,0,VALID,101.011,VALID,0,VALID,25.4871,VALID,106,VALID,0.730078,
2010-04-21, 01:17:04,VALID,1009,VALID,0,VALID,101.018,VALID,0,VALID,25.4657,VALID,116,VALID,0.298047,
2010-04-21, 01:18:04,VALID,1008.99,VALID,0,VALID,101.026,VALID,0,VALID,25.4677,VALID,115,VALID,0.755469,
2010-04-21, 01:19:04,VALID,1008.96,VALID,0,VALID,101.041,VALID,0,VALID,25.4677,VALID,122,VALID,0.587109,
2010-04-21, 01:20:04,VALID,1008.94,VALID,0,VALID,101.064,VALID,0,VALID,25.4871,VALID,121,VALID,0.682422,
2010-04-21, 01:21:04,VALID,1008.91,VALID,0,VALID,101.102,VALID,0,VALID,25.4871,VALID,121,VALID,0.418359,
2010-04-21, 01:22:04,VALID,1008.9,VALID,0,VALID,101.11,VALID,0,VALID,25.4677,VALID,129,VALID,0.982813,
2010-04-21, 01:23:04,VALID,1008.85,VALID,0,VALID,101.125,VALID,0,VALID,25.4677,VALID,135,VALID,0.7625,
2010-04-21, 01:24:04,VALID,1008.83,VALID,0,VALID,101.11,VALID,0,VALID,25.4677,VALID,113,VALID,0.700391,
2010-04-21, 01:25:04,VALID,1008.84,VALID,0,VALID,101.087,VALID,0,VALID,25.4462,VALID,122,VALID,0.607031,
2010-04-21, 01:26:04,VALID,1008.78,VALID,0,VALID,101.11,VALID,0,VALID,25.4677,VALID,147,VALID,0.669531,
2010-04-21, 01:27:04,VALID,1008.82,VALID,0,VALID,101.125,VALID,0,VALID,25.4677,VALID,128,VALID,0.450781,
2010-04-21, 01:28:04,VALID,1008.78,VALID,0,VALID,101.102,VALID,0,VALID,25.4677,VALID,128,VALID,0.663281,
2010-04-21, 01:29:04,VALID,1008.78,VALID,0,VALID,101.14,VALID,0,VALID,25.4677,VALID,128,VALID,0.290234,
2010-04-21, 01:30:04,VALID,1008.77,VALID,0,VALID,101.163,VALID,0,VALID,25.4677,VALID,128,VALID,0.00585938,
2010-04-21, 01:31:04,VALID,1008.75,VALID,0,VALID,101.186,VALID,0,VALID,25.4677,VALID,128,VALID,0.255859,
2010-04-21, 01:32:04,VALID,1008.71,VALID,0,VALID,101.201,VALID,0,VALID,25.4677,VALID,100,VALID,1.14648,
2010-04-21, 01:33:04,VALID,1008.68,VALID,0,VALID,101.217,VALID,0,VALID,25.4462,VALID,88,VALID,1.19687,
2010-04-21, 01:34:04,VALID,1008.67,VALID,0,VALID,101.24,VALID,0,VALID,25.4871,VALID,123,VALID,0.717578,
2010-04-21, 01:35:04,VALID,1008.67,VALID,0,VALID,101.24,VALID,0,VALID,25.4871,VALID,73,VALID,0.742188,
2010-04-21, 01:36:04,VALID,1008.63,VALID,0,VALID,101.194,VALID,0,VALID,25.4871,VALID,72,VALID,0.585938,
2010-04-21, 01:37:04,VALID,1008.62,VALID,0,VALID,101.156,VALID,0,VALID,25.4871,VALID,99,VALID,0.899219,
2010-04-21, 01:38:04,VALID,1008.58,VALID,0,VALID,101.186,VALID,0,VALID,25.4657,VALID,96,VALID,0.583984,
2010-04-21, 01:39:04,VALID,1008.56,VALID,0,VALID,101.171,VALID,0,VALID,25.4871,VALID,79,VALID,0.359766,
2010-04-21, 01:40:04,VALID,1008.53,VALID,0,VALID,101.156,VALID,0.105969,VALID,25.4852,VALID,102,VALID,0.432031,
2010-04-21, 01:41:04,VALID,1008.51,VALID,0,VALID,101.178,VALID,0,VALID,25.4871,VALID,96,VALID,0.324609,
2010-04-21, 01:42:04,VALID,1008.49,VALID,0,VALID,101.171,VALID,0,VALID,25.4677,VALID,85,VALID,0.453906,
2010-04-21, 01:43:04,VALID,1008.47,VALID,0,VALID,101.186,VALID,0,VALID,25.4657,VALID,104,VALID,0.521484,
2010-04-21, 01:44:04,VALID,1008.47,VALID,0,VALID,101.148,VALID,0,VALID,25.4871,VALID,84,VALID,0.401172,
2010-04-21, 01:45:04,VALID,1008.44,VALID,0,VALID,101.14,VALID,0,VALID,25.4677,VALID,81,VALID,0.721094,
2010-04-21, 01:46:04,VALID,1008.45,VALID,0,VALID,101.11,VALID,0,VALID,25.4657,VALID,84,VALID,0.198047,
2010-04-21, 01:47:04,VALID,1008.44,VALID,0,VALID,101.102,VALID,0,VALID,25.4871,VALID,84,VALID,0,
2010-04-21, 01:48:04,VALID,1008.45,VALID,0,VALID,101.095,VALID,0,VALID,25.4871,VALID,84,VALID,0,
2010-04-21, 01:49:04,VALID,1008.45,VALID,0,VALID,101.125,VALID,0,VALID,25.4871,VALID,84,VALID,0,
2010-04-21, 01:50:04,VALID,1008.44,VALID,0,VALID,101.125,VALID,0,VALID,25.4462,VALID,84,VALID,0,
2010-04-21, 01:51:04,VALID,1008.45,VALID,0,VALID,101.095,VALID,0,VALID,25.4462,VALID,84,VALID,0,
2010-04-21, 01:52:04,VALID,1008.44,VALID,0,VALID,101.087,VALID,0,VALID,25.4482,VALID,84,VALID,0,
2010-04-21, 01:53:04,VALID,1008.45,VALID,0,VALID,101.087,VALID,0,VALID,25.4267,VALID,84,VALID,0,
2010-04-21, 01:54:04,VALID,1008.46,VALID,0,VALID,101.117,VALID,0,VALID,25.4482,VALID,84,VALID,0,
2010-04-21, 01:55:04,VALID,1008.45,VALID,0,VALID,101.117,VALID,0,VALID,25.4267,VALID,118,VALID,0.807422,
2010-04-21, 01:56:04,VALID,1008.47,VALID,0,VALID,101.102,VALID,0,VALID,25.4482,VALID,117,VALID,0.638281,
2010-04-21, 01:57:04,VALID,1008.48,VALID,0,VALID,101.095,VALID,0,VALID,25.4677,VALID,103,VALID,0.799219,
2010-04-21, 01:58:04,VALID,1008.46,VALID,0,VALID,101.034,VALID,0,VALID,25.4462,VALID,119,VALID,0.801953,
2010-04-21, 01:59:04,VALID,1008.49,VALID,0,VALID,100.98,VALID,0,VALID,25.4462,VALID,121,VALID,0.534766,
2010-04-21, 02:00:04,VALID,1008.45,VALID,0,VALID,100.957,VALID,0,VALID,25.4677,VALID,118,VALID,0.629297,
2010-04-21, 02:01:04,VALID,1008.46,VALID,0,VALID,100.896,VALID,0,VALID,25.4677,VALID,127,VALID,0.617578,
2010-04-21, 02:02:04,VALID,1008.47,VALID,0,VALID,100.881,VALID,0,VALID,25.4462,VALID,83,VALID,0.584766,
2010-04-21, 02:03:04,VALID,1008.45,VALID,0,VALID,100.873,VALID,0,VALID,25.4677,VALID,82,VALID,0.00234375,
2010-04-21, 02:04:04,VALID,1008.45,VALID,0,VALID,100.889,VALID,0,VALID,25.4871,VALID,81,VALID,0,
2010-04-21, 02:05:04,VALID,1008.41,VALID,0,VALID,100.912,VALID,0,VALID,25.4677,VALID,81,VALID,0.413281,
2010-04-21, 02:06:04,VALID,1008.38,VALID,0,VALID,100.873,VALID,0,VALID,25.4482,VALID,97,VALID,0.3375,
2010-04-21, 02:07:04,VALID,1008.36,VALID,0,VALID,100.843,VALID,0,VALID,25.4677,VALID,97,VALID,0.214453,
2010-04-21, 02:08:04,VALID,1008.36,VALID,0,VALID,100.873,VALID,0,VALID,25.4267,VALID,97,VALID,0,
2010-04-21, 02:09:04,VALID,1008.37,VALID,0,VALID,100.851,VALID,0,VALID,25.4482,VALID,88,VALID,0.267188,
2010-04-21, 02:10:04,VALID,1008.31,VALID,0,VALID,100.927,VALID,0,VALID,25.4287,VALID,56,VALID,0.251953,
2010-04-21, 02:11:04,VALID,1008.29,VALID,0,VALID,100.965,VALID,0,VALID,25.4092,VALID,20,VALID,0.334375,
2010-04-21, 02:12:04,VALID,1008.28,VALID,0,VALID,101.018,VALID,0.105969,VALID,25.3683,VALID,20,VALID,0.0285156,
2010-04-21, 02:13:04,VALID,1008.28,VALID,0,VALID,101.056,VALID,0,VALID,25.3507,VALID,20,VALID,0.2625,
2010-04-21, 02:14:04,VALID,1008.25,VALID,0,VALID,101.079,VALID,0,VALID,25.3312,VALID,20,VALID,0.0542969,
2010-04-21, 02:15:04,VALID,1008.27,VALID,0,VALID,101.117,VALID,0,VALID,25.3117,VALID,20,VALID,0.236719,
2010-04-21, 02:16:04,VALID,1008.28,VALID,0,VALID,101.178,VALID,0,VALID,25.2922,VALID,20,VALID,0.0910156,
2010-04-21, 02:17:04,VALID,1008.25,VALID,0,VALID,101.201,VALID,0,VALID,25.2922,VALID,20,VALID,0.0621094,
2010-04-21, 02:18:04,VALID,1008.27,VALID,0,VALID,101.24,VALID,0,VALID,25.2727,VALID,20,VALID,0,
2010-04-21, 02:19:04,VALID,1008.25,VALID,0,VALID,101.247,VALID,0,VALID,25.2727,VALID,20,VALID,0,
2010-04-21, 02:20:04,VALID,1008.24,VALID,0,VALID,101.285,VALID,0,VALID,25.2727,VALID,20,VALID,0.0167969,
2010-04-21, 02:21:04,VALID,1008.26,VALID,0,VALID,101.301,VALID,0,VALID,25.2532,VALID,20,VALID,0.202734,
2010-04-21, 02:22:04,VALID,1008.24,VALID,0,VALID,101.308,VALID,0,VALID,25.2337,VALID,45,VALID,0.367188,
2010-04-21, 02:23:04,VALID,1008.24,VALID,0,VALID,101.346,VALID,0,VALID,25.2337,VALID,95,VALID,0.438281,
2010-04-21, 02:24:04,VALID,1008.28,VALID,0,VALID,101.377,VALID,0,VALID,25.2142,VALID,93,VALID,0.588672,
2010-04-21, 02:25:04,VALID,1008.28,VALID,0,VALID,101.369,VALID,0,VALID,25.2142,VALID,72,VALID,0.462891,
2010-04-21, 02:26:04,VALID,1008.3,VALID,0,VALID,101.354,VALID,0,VALID,25.2142,VALID,97,VALID,0.486719,
2010-04-21, 02:27:04,VALID,1008.28,VALID,0,VALID,101.377,VALID,0,VALID,25.2142,VALID,72,VALID,0.557422,
2010-04-21, 02:28:04,VALID,1008.28,VALID,0,VALID,101.377,VALID,0.105969,VALID,25.1947,VALID,72,VALID,0.210156,
2010-04-21, 02:29:04,VALID,1008.3,VALID,0,VALID,101.392,VALID,0,VALID,25.1947,VALID,72,VALID,0.214844,
2010-04-21, 02:30:04,VALID,1008.3,VALID,0,VALID,101.407,VALID,0,VALID,25.1947,VALID,70,VALID,0.287109,
2010-04-21, 02:31:04,VALID,1008.29,VALID,0,VALID,101.423,VALID,0,VALID,25.1947,VALID,70,VALID,0.408594,
2010-04-21, 02:32:04,VALID,1008.3,VALID,0,VALID,101.423,VALID,0,VALID,25.1947,VALID,70,VALID,0.392578,
2010-04-21, 02:33:04,VALID,1008.31,VALID,0,VALID,101.423,VALID,0,VALID,25.1733,VALID,56,VALID,0.467969,
2010-04-21, 02:34:04,VALID,1008.34,VALID,0,VALID,101.423,VALID,0,VALID,25.1947,VALID,51,VALID,0.351563,
2010-04-21, 02:35:04,VALID,1008.36,VALID,0,VALID,101.43,VALID,0,VALID,25.1752,VALID,51,VALID,0.151953,
2010-04-21, 02:36:04,VALID,1008.34,VALID,0,VALID,101.445,VALID,0,VALID,25.1752,VALID,51,VALID,0,
2010-04-21, 02:37:04,VALID,1008.38,VALID,0,VALID,101.438,VALID,0,VALID,25.1752,VALID,51,VALID,0,
2010-04-21, 02:38:04,VALID,1008.39,VALID,0,VALID,101.468,VALID,0,VALID,25.1752,VALID,51,VALID,0,
2010-04-21, 02:39:04,VALID,1008.36,VALID,0,VALID,101.453,VALID,0,VALID,25.1557,VALID,51,VALID,0,
2010-04-21, 02:40:04,VALID,1008.36,VALID,0,VALID,101.499,VALID,0,VALID,25.1557,VALID,51,VALID,0,
2010-04-21, 02:41:04,VALID,1008.36,VALID,0,VALID,101.506,VALID,0,VALID,25.1557,VALID,51,VALID,0,
2010-04-21, 02:42:04,VALID,1008.33,VALID,0,VALID,101.529,VALID,0,VALID,25.1557,VALID,51,VALID,0,
2010-04-21, 02:43:04,VALID,1008.31,VALID,0,VALID,101.537,VALID,0,VALID,25.1343,VALID,51,VALID,0,
2010-04-21, 02:44:04,VALID,1008.29,VALID,0,VALID,101.567,VALID,0,VALID,25.1752,VALID,51,VALID,0,
2010-04-21, 02:45:04,VALID,1008.3,VALID,0,VALID,101.606,VALID,0,VALID,25.1557,VALID,51,VALID,0,
2010-04-21, 02:46:04,VALID,1008.31,VALID,0,VALID,101.575,VALID,0,VALID,25.1362,VALID,51,VALID,0,
2010-04-21, 02:47:04,VALID,1008.33,VALID,0,VALID,101.606,VALID,0,VALID,25.1362,VALID,51,VALID,0,
2010-04-21, 02:48:04,VALID,1008.31,VALID,0,VALID,101.606,VALID,0,VALID,25.1362,VALID,51,VALID,0,
2010-04-21, 02:49:04,VALID,1008.28,VALID,0,VALID,101.636,VALID,0,VALID,25.1362,VALID,51,VALID,0,
2010-04-21, 02:50:04,VALID,1008.28,VALID,0,VALID,101.644,VALID,0,VALID,25.1362,VALID,51,VALID,0,
2010-04-21, 02:51:04,VALID,1008.26,VALID,0,VALID,101.636,VALID,0,VALID,25.1362,VALID,51,VALID,0,
2010-04-21, 02:52:04,VALID,1008.25,VALID,0,VALID,101.659,VALID,0,VALID,25.1167,VALID,51,VALID,0,
2010-04-21, 02:53:04,VALID,1008.21,VALID,0,VALID,101.674,VALID,0,VALID,25.1167,VALID,51,VALID,0,
2010-04-21, 02:54:04,VALID,1008.22,VALID,0,VALID,101.659,VALID,0,VALID,25.1167,VALID,51,VALID,0,
2010-04-21, 02:55:04,VALID,1008.21,VALID,0,VALID,101.667,VALID,0,VALID,25.1167,VALID,51,VALID,0,
2010-04-21, 02:56:04,VALID,1008.21,VALID,0,VALID,101.667,VALID,0,VALID,25.0759,VALID,51,VALID,0,
2010-04-21, 02:57:04,VALID,1008.2,VALID,0,VALID,101.697,VALID,0,VALID,25.0973,VALID,51,VALID,0,
2010-04-21, 02:58:04,VALID,1008.18,VALID,0,VALID,101.682,VALID,0,VALID,25.0778,VALID,51,VALID,0,
2010-04-21, 02:59:04,VALID,1008.18,VALID,0,VALID,101.712,VALID,0,VALID,25.0583,VALID,51,VALID,0,
2010-04-21, 03:00:04,VALID,1008.19,VALID,0,VALID,101.705,VALID,0,VALID,25.0583,VALID,51,VALID,0,
2010-04-21, 03:01:04,VALID,1008.16,VALID,0,VALID,101.735,VALID,0,VALID,25.0369,VALID,51,VALID,0,
2010-04-21, 03:02:04,VALID,1008.17,VALID,0,VALID,101.735,VALID,0,VALID,25.0369,VALID,51,VALID,0,
2010-04-21, 03:03:04,VALID,1008.15,VALID,0,VALID,101.735,VALID,0.105969,VALID,25.0369,VALID,51,VALID,0.114063,
2010-04-21, 03:04:04,VALID,1008.17,VALID,0,VALID,101.75,VALID,0,VALID,25.0388,VALID,51,VALID,0,
2010-04-21, 03:05:04,VALID,1008.17,VALID,0,VALID,101.766,VALID,0,VALID,24.9979,VALID,51,VALID,0,
2010-04-21, 03:06:04,VALID,1008.18,VALID,0,VALID,101.781,VALID,0,VALID,25.0193,VALID,52,VALID,0.350391,
2010-04-21, 03:07:04,VALID,1008.18,VALID,0,VALID,101.766,VALID,0,VALID,25.0388,VALID,54,VALID,0.0921875,
2010-04-21, 03:08:04,VALID,1008.17,VALID,0,VALID,101.766,VALID,0,VALID,25.0174,VALID,78,VALID,0.183203,
2010-04-21, 03:09:04,VALID,1008.16,VALID,0,VALID,101.766,VALID,0.105969,VALID,25.0369,VALID,111,VALID,0.703125,
2010-04-21, 03:10:04,VALID,1008.15,VALID,0,VALID,101.781,VALID,0.105969,VALID,25.0369,VALID,96,VALID,0.939844,
2010-04-21, 03:11:04,VALID,1008.18,VALID,0,VALID,101.781,VALID,0,VALID,25.0564,VALID,90,VALID,0.710156,
2010-04-21, 03:12:04,VALID,1008.2,VALID,0,VALID,101.773,VALID,0.105969,VALID,25.0954,VALID,90,VALID,0.459766,
2010-04-21, 03:13:04,VALID,1008.17,VALID,0,VALID,101.766,VALID,0.105969,VALID,25.0954,VALID,92,VALID,0.548047,
2010-04-21, 03:14:04,VALID,1008.19,VALID,0,VALID,101.75,VALID,0,VALID,25.1362,VALID,101,VALID,0.515625,
2010-04-21, 03:15:04,VALID,1008.16,VALID,0,VALID,101.728,VALID,0.105969,VALID,25.1343,VALID,65,VALID,0.441016,
2010-04-21, 03:16:04,VALID,1008.18,VALID,0,VALID,101.682,VALID,0,VALID,25.1343,VALID,58,VALID,0.219141,
2010-04-21, 03:17:04,VALID,1008.16,VALID,0,VALID,101.644,VALID,0.105969,VALID,25.1148,VALID,66,VALID,0.101563,
2010-04-21, 03:18:04,VALID,1008.17,VALID,0,VALID,101.628,VALID,0,VALID,25.1148,VALID,66,VALID,0.0671875,
2010-04-21, 03:19:04,VALID,1008.18,VALID,0,VALID,101.613,VALID,0,VALID,25.1148,VALID,68,VALID,0,
2010-04-21, 03:20:04,VALID,1008.14,VALID,0,VALID,101.583,VALID,0,VALID,25.1362,VALID,68,VALID,0,
2010-04-21, 03:21:04,VALID,1008.17,VALID,0,VALID,101.598,VALID,0,VALID,25.1167,VALID,68,VALID,0,
2010-04-21, 03:22:04,VALID,1008.17,VALID,0,VALID,101.567,VALID,0,VALID,25.0954,VALID,68,VALID,0,
2010-04-21, 03:23:04,VALID,1008.15,VALID,0,VALID,101.575,VALID,0,VALID,25.1148,VALID,99,VALID,0.357812,
2010-04-21, 03:24:04,VALID,1008.13,VALID,0,VALID,101.59,VALID,0,VALID,25.1148,VALID,99,VALID,0,
2010-04-21, 03:25:04,VALID,1008.14,VALID,0,VALID,101.59,VALID,0.105969,VALID,25.0954,VALID,106,VALID,0,
2010-04-21, 03:26:04,VALID,1008.14,VALID,0,VALID,101.575,VALID,0.105969,VALID,25.0954,VALID,128,VALID,0.458984,
2010-04-21, 03:27:04,VALID,1008.13,VALID,0,VALID,101.56,VALID,0.105969,VALID,25.0759,VALID,128,VALID,0,
2010-04-21, 03:28:04,VALID,1008.13,VALID,0,VALID,101.567,VALID,0,VALID,25.0759,VALID,132,VALID,0.643359,
2010-04-21, 03:29:04,VALID,1008.11,VALID,0,VALID,101.575,VALID,0,VALID,25.0759,VALID,129,VALID,0.614844,
2010-04-21, 03:30:04,VALID,1008.11,VALID,0,VALID,101.567,VALID,0,VALID,25.0759,VALID,131,VALID,0.679688,
2010-04-21, 03:31:04,VALID,1008.11,VALID,0,VALID,101.583,VALID,0,VALID,25.0992,VALID,131,VALID,0.228125,
2010-04-21, 03:32:04,VALID,1008.09,VALID,0,VALID,101.59,VALID,0,VALID,25.0583,VALID,145,VALID,0.242578,
2010-04-21, 03:33:04,VALID,1008.09,VALID,0,VALID,101.598,VALID,0,VALID,25.0583,VALID,149,VALID,0.332031,
2010-04-21, 03:34:04,VALID,1008.12,VALID,0,VALID,101.598,VALID,0,VALID,25.0602,VALID,133,VALID,0.412109,
2010-04-21, 03:35:04,VALID,1008.11,VALID,0,VALID,101.636,VALID,0,VALID,25.0193,VALID,133,VALID,0,
2010-04-21, 03:36:04,VALID,1008.1,VALID,0,VALID,101.651,VALID,0,VALID,25.0193,VALID,133,VALID,0,
2010-04-21, 03:37:04,VALID,1008.1,VALID,0,VALID,101.651,VALID,0,VALID,25.0193,VALID,133,VALID,0,
2010-04-21, 03:38:04,VALID,1008.1,VALID,0,VALID,101.667,VALID,0,VALID,25.0388,VALID,133,VALID,0.0726563,
2010-04-21, 03:39:04,VALID,1008.08,VALID,0,VALID,101.674,VALID,0,VALID,25.0193,VALID,133,VALID,0.151562,
2010-04-21, 03:40:04,VALID,1008.11,VALID,0,VALID,101.705,VALID,0,VALID,25.0193,VALID,133,VALID,0,
2010-04-21, 03:41:04,VALID,1008.14,VALID,0,VALID,101.728,VALID,0,VALID,25.0388,VALID,133,VALID,0.270703,
2010-04-21, 03:42:04,VALID,1008.13,VALID,0,VALID,101.735,VALID,0,VALID,25.0388,VALID,133,VALID,0.226563,
2010-04-21, 03:43:04,VALID,1008.16,VALID,0,VALID,101.735,VALID,0,VALID,25.0602,VALID,133,VALID,0.0757812,
2010-04-21, 03:44:04,VALID,1008.16,VALID,0,VALID,101.735,VALID,0,VALID,25.0602,VALID,134,VALID,0,
2010-04-21, 03:45:04,VALID,1008.13,VALID,0,VALID,101.743,VALID,0,VALID,25.0388,VALID,155,VALID,0,
2010-04-21, 03:46:04,VALID,1008.14,VALID,0,VALID,101.75,VALID,0.105969,VALID,25.0564,VALID,155,VALID,0,
2010-04-21, 03:47:04,VALID,1008.11,VALID,0,VALID,101.758,VALID,0,VALID,25.0778,VALID,152,VALID,0,
2010-04-21, 03:48:04,VALID,1008.12,VALID,0,VALID,101.766,VALID,0,VALID,25.0778,VALID,151,VALID,0,
2010-04-21, 03:49:04,VALID,1008.09,VALID,0,VALID,101.758,VALID,0,VALID,25.0564,VALID,151,VALID,0,